| time (UTC) | temp C | wind direction | speed KPH | gust KPH | rain 1hr cm | rain 24hr cm | rain mn cm | humidity % | barometer mb |
| 20260503053515 | 5 | 0.0 | 0.0 | 0.00 | 0.25 | 0.00 | 78 | 1011.5 | |
| 20260503053015 | 5 | 0.0 | 0.0 | 0.00 | 0.25 | 0.00 | 79 | 1011.4 | |
| 20260503052515 | 5 | 0.0 | 0.0 | 0.00 | 0.25 | 0.00 | 78 | 1011.5 | |
| 20260503052015 | 5 | 0.0 | 0.0 | 0.00 | 0.25 | 0.00 | 77 | 1011.5 | |
| 20260503051515 | 5 | 0.0 | 0.0 | 0.00 | 0.25 | 0.00 | 77 | 1011.5 | |
| 20260503051015 | 5 | 0.0 | 0.0 | 0.00 | 0.25 | 0.00 | 77 | 1011.7 | |
| 20260503050515 | 5 | 0.0 | 0.0 | 0.00 | 0.25 | 0.00 | 75 | 1011.7 | |
| 20260503050015 | 5 | 0.0 | 0.0 | 0.00 | 0.25 | 0.00 | 74 | 1011.7 | |
| 20260503045515 | 5 | 0.0 | 0.0 | 0.00 | 0.25 | 0.00 | 74 | 1011.7 | |
| 20260503045015 | 5 | 0.0 | 0.0 | 0.00 | 0.25 | 0.00 | 73 | 1011.7 | |
| 20260503044516 | 5 | 0.0 | 0.0 | 0.00 | 0.25 | 0.00 | 73 | 1011.7 | |
| 20260503044015 | 5 | 0.0 | 0.0 | 0.00 | 0.25 | 0.00 | 72 | 1011.7 | |
| 20260503043515 | 5 | 0.0 | 0.0 | 0.00 | 0.25 | 0.00 | 72 | 1011.7 | |
| 20260503043015 | 5 | 0.0 | 0.0 | 0.00 | 0.25 | 0.00 | 73 | 1011.8 | |
| 20260503042515 | 5 | 0.0 | 0.0 | 0.00 | 0.25 | 0.00 | 72 | 1011.8 | |
| 20260503042015 | 5 | 0.0 | 0.0 | 0.00 | 0.25 | 0.00 | 71 | 1011.8 | |
| 20260503041515 | 5 | 0.0 | 0.0 | 0.00 | 0.25 | 0.00 | 69 | 1011.9 | |
| 20260503041015 | 6 | 0.0 | 0.0 | 0.00 | 0.25 | 0.00 | 69 | 1011.8 | |
| 20260503040515 | 6 | 0.0 | 0.0 | 0.00 | 0.25 | 0.00 | 68 | 1011.8 | |
| 20260503040015 | 6 | 0.0 | 0.0 | 0.00 | 0.25 | 0.25 | 66 | 1011.8 | |
| 20260503035516 | 6 | 0.0 | 0.0 | 0.00 | 0.25 | 0.25 | 67 | 1011.8 | |
| 20260503035016 | 6 | 0.0 | 0.0 | 0.00 | 0.25 | 0.25 | 66 | 1011.9 | |
| 20260503034516 | 6 | 0.0 | 3.2 | 0.00 | 0.25 | 0.25 | 67 | 1011.8 | |
| 20260503034016 | 6 | 0.0 | 3.2 | 0.00 | 0.25 | 0.25 | 65 | 1011.8 | |
| 20260503033516 | 6 | 0.0 | 0.0 | 0.00 | 0.25 | 0.25 | 63 | 1011.8 | |
| 20260503033016 | 6 | 0.0 | 0.0 | 0.00 | 0.25 | 0.25 | 65 | 1011.8 | |
| 20260503032516 | 6 | 0.0 | 0.0 | 0.00 | 0.25 | 0.25 | 64 | 1011.8 | |
| 20260503032016 | 6 | 0.0 | 0.0 | 0.00 | 0.25 | 0.25 | 64 | 1011.8 | |
| 20260503031516 | 6 | 0.0 | 1.6 | 0.00 | 0.25 | 0.25 | 65 | 1011.7 | |
| 20260503031016 | 7 | 0.0 | 0.0 | 0.00 | 0.25 | 0.25 | 65 | 1011.7 | |
| 20260503030516 | 7 | 0.0 | 0.0 | 0.00 | 0.25 | 0.25 | 65 | 1011.7 | |
| 20260503030016 | 7 | 0.0 | 0.0 | 0.00 | 0.25 | 0.25 | 64 | 1011.7 | |
| 20260503025516 | 7 | 0.0 | 0.0 | 0.00 | 0.25 | 0.25 | 65 | 1011.7 | |
| 20260503025016 | 7 | 0.0 | 0.0 | 0.00 | 0.25 | 0.25 | 66 | 1011.8 | |
| 20260503024516 | 7 | 0.0 | 0.0 | 0.00 | 0.25 | 0.25 | 64 | 1011.7 | |
| 20260503024016 | 7 | 0.0 | 0.0 | 0.00 | 0.25 | 0.25 | 64 | 1011.8 | |
| 20260503023516 | 7 | 0.0 | 1.6 | 0.00 | 0.25 | 0.25 | 61 | 1011.8 | |
| 20260503023016 | 7 | 0.0 | 1.6 | 0.00 | 0.25 | 0.25 | 58 | 1011.9 | |
| 20260503022516 | 7 | 0.0 | 0.0 | 0.00 | 0.25 | 0.25 | 58 | 1011.8 | |
| 20260503022016 | 8 | 0.0 | 0.0 | 0.00 | 0.25 | 0.25 | 59 | 1011.9 | |
| 20260503021516 | 8 | 0.0 | 0.0 | 0.00 | 0.25 | 0.25 | 64 | 1011.9 | |
| 20260503021016 | 8 | 0.0 | 1.6 | 0.00 | 0.25 | 0.25 | 60 | 1011.9 | |
| 20260503020516 | 8 | 0.0 | 3.2 | 0.00 | 0.25 | 0.25 | 56 | 1011.9 | |
| 20260503020016 | 8 | 293 | 1.6 | 3.2 | 0.00 | 0.25 | 0.25 | 55 | 1011.8 |
| 20260503015516 | 8 | 293 | 1.6 | 4.8 | 0.00 | 0.25 | 0.25 | 56 | 1011.8 |
| 20260503015016 | 8 | 293 | 1.6 | 4.8 | 0.00 | 0.25 | 0.25 | 57 | 1011.7 |
| 20260503014516 | 8 | 293 | 1.6 | 3.2 | 0.00 | 0.25 | 0.25 | 60 | 1011.8 |
| 20260503014016 | 8 | 0.0 | 1.6 | 0.00 | 0.25 | 0.25 | 64 | 1011.7 | |
| 20260503013516 | 8 | 0.0 | 0.0 | 0.00 | 0.25 | 0.25 | 66 | 1011.6 | |
| 20260503013016 | 8 | 0.0 | 3.2 | 0.00 | 0.25 | 0.25 | 64 | 1011.6 | |
| 20260503012516 | 8 | 0.0 | 0.0 | 0.00 | 0.25 | 0.25 | 59 | 1011.6 | |
| 20260503012016 | 8 | 0.0 | 0.0 | 0.00 | 0.25 | 0.25 | 59 | 1011.5 | |
| 20260503011516 | 8 | 0.0 | 0.0 | 0.00 | 0.25 | 0.25 | 59 | 1011.6 | |
| 20260503011016 | 8 | 0.0 | 0.0 | 0.00 | 0.25 | 0.25 | 60 | 1011.5 | |
| 20260503010516 | 8 | 0.0 | 0.0 | 0.00 | 0.25 | 0.25 | 58 | 1011.5 | |
| 20260503010016 | 9 | 0.0 | 0.0 | 0.00 | 0.25 | 0.25 | 56 | 1011.4 | |
| 20260503005516 | 9 | 0.0 | 0.0 | 0.00 | 0.25 | 0.25 | 60 | 1011.3 | |
| 20260503005016 | 9 | 0.0 | 0.0 | 0.00 | 0.25 | 0.25 | 54 | 1011.2 | |
| 20260503004516 | 10 | 0.0 | 0.0 | 0.00 | 0.25 | 0.25 | 54 | 1011.2 | |
| 20260503004016 | 10 | 0.0 | 0.0 | 0.00 | 0.25 | 0.25 | 53 | 1011.2 | |
| 20260503003516 | 10 | 0.0 | 0.0 | 0.00 | 0.25 | 0.25 | 52 | 1011.2 | |
| 20260503003016 | 10 | 0.0 | 0.0 | 0.00 | 0.25 | 0.25 | 55 | 1011.1 | |
| 20260503002516 | 10 | 0.0 | 0.0 | 0.00 | 0.25 | 0.25 | 53 | 1011.1 | |
| 20260503002016 | 10 | 0.0 | 0.0 | 0.00 | 0.25 | 0.25 | 50 | 1011.0 | |
| 20260503001516 | 11 | 0.0 | 0.0 | 0.00 | 0.25 | 0.25 | 51 | 1011.1 | |
| 20260503001016 | 11 | 0.0 | 3.2 | 0.00 | 0.25 | 0.25 | 49 | 1011.0 | |
| 20260503000516 | 11 | 0.0 | 3.2 | 0.00 | 0.25 | 0.25 | 49 | 1010.9 | |
| 20260503000015 | 11 | 293 | 3.2 | 4.8 | 0.00 | 0.25 | 0.25 | 46 | 1010.9 |
| 20260502235516 | 11 | 293 | 3.2 | 8.0 | 0.00 | 0.25 | 0.25 | 45 | 1011.0 |
| 20260502235016 | 11 | 293 | 3.2 | 11.3 | 0.00 | 0.25 | 0.25 | 45 | 1010.9 |
| 20260502234516 | 11 | 293 | 1.6 | 4.8 | 0.00 | 0.25 | 0.25 | 45 | 1010.9 |
| 20260502234015 | 12 | 293 | 1.6 | 6.4 | 0.00 | 0.25 | 0.25 | 45 | 1010.9 |
| 20260502233515 | 12 | 293 | 1.6 | 4.8 | 0.00 | 0.25 | 0.25 | 44 | 1010.9 |
| 20260502233015 | 12 | 315 | 3.2 | 11.3 | 0.00 | 0.25 | 0.25 | 44 | 1010.8 |
| 20260502232515 | 12 | 315 | 3.2 | 8.0 | 0.00 | 0.25 | 0.25 | 44 | 1010.7 |
| 20260502232015 | 12 | 293 | 3.2 | 8.0 | 0.00 | 0.25 | 0.25 | 44 | 1010.7 |
| 20260502231515 | 12 | 248 | 3.2 | 8.0 | 0.00 | 0.25 | 0.25 | 44 | 1010.8 |
| 20260502231016 | 12 | 270 | 3.2 | 12.9 | 0.00 | 0.25 | 0.25 | 43 | 1010.7 |
| 20260502230516 | 12 | 293 | 3.2 | 8.0 | 0.00 | 0.25 | 0.25 | 43 | 1010.6 |
| 20260502230016 | 12 | 270 | 3.2 | 9.7 | 0.00 | 0.25 | 0.25 | 42 | 1010.7 |
| 20260502225515 | 13 | 270 | 6.4 | 16.1 | 0.00 | 0.25 | 0.25 | 41 | 1010.6 |
| 20260502225016 | 13 | 293 | 9.7 | 16.1 | 0.00 | 0.25 | 0.25 | 41 | 1010.6 |
| 20260502224515 | 13 | 293 | 4.8 | 14.5 | 0.00 | 0.25 | 0.25 | 41 | 1010.6 |
| 20260502224015 | 13 | 293 | 6.4 | 11.3 | 0.00 | 0.25 | 0.25 | 40 | 1010.5 |
| 20260502223515 | 13 | 270 | 8.0 | 19.3 | 0.00 | 0.25 | 0.25 | 40 | 1010.5 |
| 20260502223015 | 13 | 293 | 6.4 | 16.1 | 0.00 | 0.25 | 0.25 | 41 | 1010.5 |
| 20260502222515 | 13 | 270 | 6.4 | 16.1 | 0.00 | 0.25 | 0.25 | 42 | 1010.4 |
| 20260502222015 | 13 | 315 | 9.7 | 19.3 | 0.00 | 0.25 | 0.25 | 40 | 1010.4 |
| 20260502221515 | 13 | 315 | 6.4 | 12.9 | 0.00 | 0.25 | 0.25 | 42 | 1010.3 |
| 20260502221015 | 13 | 315 | 1.6 | 6.4 | 0.00 | 0.25 | 0.25 | 42 | 1010.2 |
| 20260502220515 | 13 | 315 | 3.2 | 6.4 | 0.00 | 0.25 | 0.25 | 46 | 1010.2 |
| 20260502220015 | 13 | 315 | 3.2 | 6.4 | 0.00 | 0.25 | 0.25 | 42 | 1010.3 |
| 20260502215515 | 13 | 315 | 4.8 | 16.1 | 0.00 | 0.25 | 0.25 | 43 | 1010.3 |
| 20260502215015 | 13 | 315 | 4.8 | 12.9 | 0.00 | 0.25 | 0.25 | 42 | 1010.2 |
| 20260502214516 | 13 | 315 | 6.4 | 11.3 | 0.00 | 0.25 | 0.25 | 41 | 1010.2 |
| 20260502214015 | 14 | 293 | 6.4 | 16.1 | 0.00 | 0.25 | 0.25 | 40 | 1010.2 |
| 20260502213515 | 14 | 338 | 4.8 | 8.0 | 0.00 | 0.25 | 0.25 | 40 | 1010.1 |
| 20260502213015 | 14 | 315 | 4.8 | 12.9 | 0.00 | 0.25 | 0.25 | 39 | 1010.0 |
| 20260502212515 | 15 | 270 | 1.6 | 6.4 | 0.00 | 0.25 | 0.25 | 39 | 1010.0 |
| 20260502212015 | 15 | 270 | 3.2 | 8.0 | 0.00 | 0.25 | 0.25 | 38 | 1009.9 |
| 20260502211515 | 15 | 293 | 4.8 | 11.3 | 0.00 | 0.25 | 0.25 | 37 | 1009.9 |
| 20260502211015 | 15 | 315 | 4.8 | 14.5 | 0.00 | 0.25 | 0.25 | 38 | 1009.8 |
| 20260502210515 | 15 | 270 | 6.4 | 17.7 | 0.00 | 0.25 | 0.25 | 38 | 1009.9 |
| 20260502210015 | 15 | 270 | 3.2 | 12.9 | 0.00 | 0.25 | 0.25 | 40 | 1009.9 |
| 20260502205515 | 15 | 248 | 4.8 | 11.3 | 0.00 | 0.25 | 0.25 | 40 | 1009.8 |
| 20260502205015 | 16 | 270 | 4.8 | 11.3 | 0.00 | 0.25 | 0.25 | 42 | 1009.8 |
| 20260502204515 | 16 | 270 | 4.8 | 16.1 | 0.00 | 0.25 | 0.25 | 38 | 1009.8 |
| 20260502204015 | 16 | 270 | 6.4 | 16.1 | 0.00 | 0.25 | 0.25 | 37 | 1009.8 |
| 20260502203515 | 17 | 293 | 6.4 | 16.1 | 0.00 | 0.25 | 0.25 | 34 | 1009.8 |
| 20260502203015 | 17 | 315 | 4.8 | 16.1 | 0.00 | 0.25 | 0.25 | 37 | 1009.9 |
| 20260502202515 | 16 | 248 | 6.4 | 12.9 | 0.00 | 0.25 | 0.25 | 38 | 1009.9 |
| 20260502202015 | 16 | 248 | 6.4 | 14.5 | 0.00 | 0.25 | 0.25 | 43 | 1009.9 |
| 20260502201515 | 16 | 270 | 4.8 | 12.9 | 0.00 | 0.25 | 0.25 | 40 | 1010.0 |
| 20260502201015 | 16 | 338 | 3.2 | 6.4 | 0.00 | 0.25 | 0.25 | 39 | 1010.1 |
| 20260502200515 | 16 | 338 | 4.8 | 16.1 | 0.00 | 0.25 | 0.25 | 39 | 1010.0 |
| 20260502200015 | 16 | 270 | 4.8 | 12.9 | 0.00 | 0.25 | 0.25 | 41 | 1010.1 |
| 20260502195515 | 15 | 248 | 6.4 | 14.5 | 0.00 | 0.25 | 0.25 | 41 | 1010.1 |
| 20260502195015 | 16 | 293 | 3.2 | 11.3 | 0.00 | 0.25 | 0.25 | 42 | 1010.2 |
| 20260502194515 | 16 | 293 | 3.2 | 8.0 | 0.00 | 0.25 | 0.25 | 40 | 1010.3 |
| 20260502194015 | 16 | 315 | 4.8 | 11.3 | 0.00 | 0.25 | 0.25 | 39 | 1010.3 |
| 20260502193515 | 16 | 270 | 4.8 | 12.9 | 0.00 | 0.25 | 0.25 | 40 | 1010.3 |
| 20260502193015 | 16 | 293 | 3.2 | 8.0 | 0.00 | 0.25 | 0.25 | 40 | 1010.4 |
| 20260502192515 | 16 | 315 | 3.2 | 4.8 | 0.00 | 0.25 | 0.25 | 41 | 1010.5 |
| 20260502192015 | 16 | 315 | 3.2 | 9.7 | 0.00 | 0.25 | 0.25 | 38 | 1010.5 |
| 20260502191515 | 16 | 270 | 6.4 | 12.9 | 0.00 | 0.25 | 0.25 | 38 | 1010.6 |
| 20260502191015 | 16 | 248 | 4.8 | 12.9 | 0.00 | 0.25 | 0.25 | 44 | 1010.6 |
| 20260502190515 | 15 | 248 | 8.0 | 16.1 | 0.00 | 0.25 | 0.25 | 41 | 1010.6 |
| 20260502190015 | 15 | 248 | 3.2 | 9.7 | 0.00 | 0.25 | 0.25 | 40 | 1010.7 |
| 20260502185515 | 16 | 225 | 4.8 | 16.1 | 0.00 | 0.25 | 0.25 | 37 | 1010.8 |
| 20260502185015 | 16 | 225 | 4.8 | 9.7 | 0.00 | 0.25 | 0.25 | 40 | 1010.8 |
| 20260502184515 | 16 | 270 | 3.2 | 11.3 | 0.00 | 0.25 | 0.25 | 36 | 1010.8 |
| 20260502184015 | 16 | 270 | 3.2 | 11.3 | 0.00 | 0.25 | 0.25 | 39 | 1010.9 |
| 20260502183515 | 16 | 248 | 4.8 | 11.3 | 0.00 | 0.25 | 0.25 | 41 | 1010.9 |
| 20260502183015 | 16 | 225 | 6.4 | 11.3 | 0.00 | 0.25 | 0.25 | 46 | 1011.0 |
| 20260502182515 | 16 | 293 | 3.2 | 8.0 | 0.00 | 0.25 | 0.25 | 45 | 1011.0 |
| 20260502182015 | 16 | 315 | 3.2 | 6.4 | 0.00 | 0.25 | 0.25 | 40 | 1011.0 |
| 20260502181515 | 17 | 315 | 4.8 | 11.3 | 0.00 | 0.25 | 0.25 | 42 | 1011.0 |
| 20260502181015 | 17 | 293 | 4.8 | 11.3 | 0.00 | 0.25 | 0.25 | 44 | 1010.8 |
| 20260502180515 | 16 | 315 | 4.8 | 16.1 | 0.00 | 0.25 | 0.25 | 40 | 1010.8 |
| 20260502170517 | 16 | 293 | 1.6 | 4.8 | 0.00 | 0.25 | 0.25 | 53 | 1011.5 |
| 20260502164017 | 14 | 225 | 4.8 | 11.3 | 0.00 | 0.25 | 0.25 | 57 | 1011.5 |
| 20260502163517 | 13 | 315 | 4.8 | 12.9 | 0.00 | 0.25 | 0.25 | 49 | 1011.6 |
| 20260502163017 | 13 | 293 | 4.8 | 12.9 | 0.00 | 0.25 | 0.25 | 56 | 1011.7 |
| 20260502162517 | 13 | 23 | 1.6 | 4.8 | 0.00 | 0.25 | 0.25 | 57 | 1011.8 |
| 20260502162017 | 14 | 23 | 1.6 | 4.8 | 0.00 | 0.25 | 0.25 | 64 | 1011.8 |
| 20260502161517 | 14 | 23 | 3.2 | 12.9 | 0.00 | 0.25 | 0.25 | 60 | 1011.9 |
| 20260502161017 | 15 | 293 | 8.0 | 17.7 | 0.00 | 0.25 | 0.25 | 56 | 1011.8 |
| 20260502160517 | 15 | 293 | 4.8 | 11.3 | 0.00 | 0.25 | 0.25 | 60 | 1011.9 |
| 20260502152017 | 13 | 315 | 4.8 | 12.9 | 0.00 | 0.25 | 0.25 | 68 | 1012.1 |
| 20260502151516 | 13 | 293 | 4.8 | 11.3 | 0.00 | 0.25 | 0.25 | 66 | 1012.1 |
| 20260502151017 | 12 | 270 | 4.8 | 12.9 | 0.00 | 0.25 | 0.25 | 70 | 1012.0 |
| 20260502150516 | 12 | 270 | 4.8 | 12.9 | 0.00 | 0.25 | 0.25 | 70 | 1012.2 |
| 20260502130516 | 8 | 270 | 3.2 | 6.4 | 0.00 | 0.25 | 0.25 | 90 | 1012.4 |
| 20260502123516 | 8 | 293 | 4.8 | 12.9 | 0.00 | 0.25 | 0.25 | 95 | 1012.0 |
| 20260502123016 | 8 | 293 | 4.8 | 12.9 | 0.00 | 0.25 | 0.25 | 95 | 1012.0 |
| 20260502122516 | 8 | 248 | 4.8 | 9.7 | 0.00 | 0.25 | 0.25 | 96 | 1012.0 |
| 20260502122016 | 8 | 248 | 4.8 | 11.3 | 0.00 | 0.25 | 0.25 | 96 | 1012.0 |
| 20260502121516 | 8 | 248 | 3.2 | 6.4 | 0.00 | 0.25 | 0.25 | 97 | 1011.9 |
| 20260502121016 | 8 | 225 | 1.6 | 4.8 | 0.00 | 0.25 | 0.25 | 97 | 1011.9 |
| 20260502120516 | 8 | 225 | 1.6 | 3.2 | 0.00 | 0.25 | 0.25 | 97 | 1011.9 |
| 20260502115516 | 8 | 0.0 | 3.2 | 0.00 | 0.25 | 0.25 | 97 | 1012.0 | |
| 20260502115016 | 8 | 0.0 | 4.8 | 0.00 | 0.25 | 0.25 | 96 | 1012.1 | |
| 20260502114516 | 8 | 225 | 1.6 | 3.2 | 0.00 | 0.25 | 0.25 | 96 | 1012.1 |
| 20260502114016 | 8 | 225 | 1.6 | 4.8 | 0.00 | 0.25 | 0.25 | 97 | 1012.2 |
| 20260502113516 | 8 | 225 | 1.6 | 4.8 | 0.00 | 0.25 | 0.25 | 97 | 1012.0 |
| 20260502113016 | 8 | 0.0 | 4.8 | 0.00 | 0.25 | 0.25 | 97 | 1012.0 | |
| 20260502112516 | 8 | 248 | 1.6 | 6.4 | 0.00 | 0.25 | 0.25 | 97 | 1012.1 |
| 20260502112016 | 8 | 0.0 | 3.2 | 0.00 | 0.25 | 0.25 | 97 | 1012.0 | |
| 20260502111516 | 7 | 0.0 | 0.0 | 0.00 | 0.25 | 0.25 | 96 | 1011.9 | |
| 20260502111017 | 7 | 0.0 | 0.0 | 0.00 | 0.25 | 0.25 | 96 | 1012.0 | |
| 20260502110516 | 7 | 0.0 | 0.0 | 0.00 | 0.25 | 0.25 | 96 | 1011.8 | |
| 20260502110016 | 7 | 0.0 | 0.0 | 0.00 | 0.25 | 0.25 | 96 | 1011.7 | |
| 20260502105516 | 7 | 0.0 | 0.0 | 0.00 | 0.25 | 0.25 | 96 | 1011.7 | |
| 20260502105016 | 7 | 0.0 | 0.0 | 0.00 | 0.25 | 0.25 | 96 | 1011.6 | |
| 20260502104516 | 7 | 0.0 | 0.0 | 0.00 | 0.25 | 0.25 | 96 | 1011.4 | |
| 20260502104016 | 7 | 0.0 | 0.0 | 0.00 | 0.25 | 0.25 | 96 | 1011.5 | |
| 20260502103516 | 7 | 0.0 | 0.0 | 0.00 | 0.25 | 0.25 | 96 | 1011.4 | |
| 20260502103016 | 7 | 0.0 | 0.0 | 0.00 | 0.25 | 0.25 | 95 | 1011.3 | |
| 20260502102516 | 7 | 0.0 | 0.0 | 0.00 | 0.25 | 0.25 | 95 | 1011.4 | |
| 20260502102016 | 7 | 0.0 | 0.0 | 0.00 | 0.25 | 0.25 | 95 | 1011.4 | |
| 20260502101516 | 7 | 0.0 | 0.0 | 0.00 | 0.25 | 0.25 | 95 | 1011.5 | |
| 20260502101016 | 7 | 0.0 | 0.0 | 0.00 | 0.25 | 0.25 | 95 | 1011.5 | |
| 20260502100516 | 7 | 0.0 | 0.0 | 0.00 | 0.25 | 0.25 | 95 | 1011.4 | |
| 20260502091516 | 7 | 0.0 | 0.0 | 0.13 | 0.25 | 0.25 | 95 | 1011.2 | |
| 20260502091016 | 7 | 0.0 | 0.0 | 0.15 | 0.25 | 0.25 | 95 | 1011.0 | |
| 20260502090516 | 8 | 0.0 | 0.0 | 0.18 | 0.25 | 0.25 | 95 | 1011.0 | |
| 20260502071515 | 8 | 0.0 | 0.0 | 0.03 | 0.05 | 0.05 | 93 | 1011.7 | |
| 20260502071016 | 8 | 0.0 | 0.0 | 0.05 | 0.05 | 0.05 | 93 | 1011.7 | |
| 20260502070516 | 8 | 0.0 | 1.6 | 0.05 | 0.05 | 0.05 | 93 | 1011.8 | |
| 20260502070017 | 8 | 0.0 | 0.0 | 0.05 | 0.05 | 0.05 | 93 | 1011.9 | |
| 20260502065515 | 8 | 0.0 | 0.0 | 0.05 | 0.05 | 0.05 | 92 | 1011.9 | |
| 20260502065016 | 8 | 0.0 | 0.0 | 0.05 | 0.05 | 0.05 | 92 | 1011.9 | |
| 20260502064516 | 8 | 0.0 | 0.0 | 0.05 | 0.05 | 0.05 | 92 | 1011.9 | |
| 20260502064016 | 8 | 0.0 | 0.0 | 0.05 | 0.05 | 0.05 | 92 | 1012.0 | |
| 20260502063516 | 8 | 0.0 | 0.0 | 0.05 | 0.05 | 0.05 | 91 | 1012.1 | |
| 20260502063016 | 8 | 0.0 | 4.8 | 0.05 | 0.05 | 0.05 | 91 | 1012.2 | |
| 20260502062516 | 8 | 0.0 | 3.2 | 0.05 | 0.05 | 0.05 | 91 | 1012.1 | |
| 20260502062015 | 8 | 0.0 | 0.0 | 0.05 | 0.05 | 0.05 | 91 | 1012.0 | |
| 20260502061515 | 8 | 248 | 1.6 | 6.4 | 0.03 | 0.03 | 0.03 | 90 | 1012.1 |
| 20260502061015 | 8 | 225 | 1.6 | 6.4 | 0.00 | 0.00 | 0.00 | 91 | 1012.4 |
| 20260502060516 | 9 | 203 | 1.6 | 4.8 | 0.00 | 0.00 | 0.00 | 91 | 1012.4 |
| 20260502060015 | 9 | 180 | 1.6 | 6.4 | 0.00 | 0.00 | 0.00 | 91 | 1012.3 |
| 20260502055516 | 9 | 180 | 1.6 | 4.8 | 0.00 | 0.00 | 0.00 | 91 | 1012.2 |
| 20260502055015 | 9 | 0.0 | 0.0 | 0.00 | 0.00 | 0.00 | 90 | 1011.9 | |
| 20260502054515 | 9 | 0.0 | 0.0 | 0.00 | 0.00 | 0.00 | 90 | 1011.9 | |
| 20260502054015 | 9 | 0.0 | 0.0 | 0.00 | 0.00 | 0.00 | 89 | 1011.8 |